FW2580 Weather Reports


time (UTC)temp
C
wind
direction
speed
KPH
gust
KPH
rain 1hr
cm
rain 24hr
cm
rain mn
cm
humidity
%
barometer
mb
20260506004524 24 256 9.7 25.7 0.00 0.00 0.00 12 1009.2
20260506003020 25 238 11.3 24.1 0.00 0.00 0.00 12 1009.1
20260506001519 25 296 9.7 20.9 0.00 0.00 0.00 11 1009.0
20260506000031 25 241 6.4 17.7 0.00 0.00 0.00 12 1008.9
20260505234520 25 209 11.3 25.7 0.00 0.00 0.00 12 1008.8
20260505233016 25 226 11.3 22.5 0.00 0.00 0.00 12 1008.8
20260505231519 25 225 6.4 25.7 0.00 0.00 0.00 12 1008.8
20260505230029 25 232 9.7 20.9 0.00 0.00 0.00 13 1008.9
20260505224514 25 307 8.0 16.1 0.00 0.00 0.00 13 1008.9
20260505223012 25 222 12.9 25.7 0.00 0.00 0.00 12 1009.2
20260505221510 25 269 8.0 25.7 0.00 0.00 0.00 12 1009.4
20260505220009 25 292 12.9 27.4 0.00 0.00 0.00 13 1009.6
20260505214505 25 231 8.0 19.3 0.00 0.00 0.00 13 1009.7
20260505213008 25 213 9.7 17.7 0.00 0.00 0.00 15 1009.9
20260505211505 25 226 11.3 22.5 0.00 0.00 0.00 14 1010.2
20260505210002 25 257 6.4 17.7 0.00 0.00 0.00 14 1010.3
20260505204605 25 244 9.7 24.1 0.00 0.00 0.00 13 1010.5
20260505203058 25 208 3.2 20.9 0.00 0.00 0.00 14 1010.4
20260505201557 25 236 12.9 24.1 0.00 0.00 0.00 15 1010.5
20260505200057 24 192 12.9 24.1 0.00 0.00 0.00 16 1010.6
20260505194556 24 178 9.7 19.3 0.00 0.00 0.00 16 1010.5
20260505193055 25 221 8.0 24.1 0.00 0.00 0.00 17 1010.8
20260505191557 23 229 12.9 22.5 0.00 0.00 0.00 19 1010.9
20260505190055 23 198 9.7 24.1 0.00 0.00 0.00 20 1011.0
20260505184550 23 286 6.4 20.9 0.00 0.00 0.00 20 1011.0
20260505183047 23 259 6.4 19.3 0.00 0.00 0.00 23 1011.1
20260505181606 22 218 11.3 25.7 0.00 0.00 0.00 25 1011.3
20260505180056 22 312 9.7 20.9 0.00 0.00 0.00 26 1011.3
20260505174544 22 224 8.0 19.3 0.00 0.00 0.00 26 1011.3
20260505173039 21 213 11.3 17.7 0.00 0.00 0.00 26 1011.2
20260505171542 21 248 11.3 25.7 0.00 0.00 0.00 24 1011.3
20260505170037 21 250 8.0 16.1 0.00 0.00 0.00 26 1011.2
20260505164537 21 270 6.4 16.1 0.00 0.00 0.00 25 1011.2
20260505163037 21 181 9.7 17.7 0.00 0.00 0.00 24 1011.2
20260505161536 20 217 4.8 14.5 0.00 0.00 0.00 26 1011.3
20260505153134 19 210 4.8 9.7 0.00 0.00 0.00 29 1011.4
20260505151532 18 230 4.8 14.5 0.00 0.00 0.00 33 1011.4
20260505124519 17 196 3.2 8.0 0.00 0.00 0.00 44 1010.2
20260505123014 17 231 3.2 11.3 0.00 0.00 0.00 44 1010.2
20260505121512 17 246 4.8 11.3 0.00 0.00 0.00 43 1010.3
20260505120010 17 234 4.8 11.3 0.00 0.00 0.00 42 1010.0
20260505114509 18 196 4.8 14.5 0.00 0.00 0.00 42 1010.0
20260505113007 18 219 6.4 14.5 0.00 0.00 0.00 41 1009.9
20260505111505 18 215 8.0 16.1 0.00 0.00 0.00 41 1009.8
20260505101602 19 221 4.8 16.1 0.00 0.00 0.00 38 1010.2
20260505100053 19 250 8.0 14.5 0.00 0.00 0.00 37 1010.5
20260505094550 20 207 4.8 16.1 0.00 0.00 0.00 37 1010.7
20260505093049 20 215 8.0 16.1 0.00 0.00 0.00 37 1010.8
20260505091553 20 244 9.7 20.9 0.00 0.00 0.00 36 1011.0
20260505090044 20 258 8.0 14.5 0.00 0.00 0.00 34 1010.9
20260505084546 20 213 11.3 20.9 0.00 0.00 0.00 31 1011.0
20260505083053 21 234 9.7 17.7 0.00 0.00 0.00 28 1011.3
20260505081536 21 233 12.9 19.3 0.00 0.00 0.00 26 1011.2
20260505080033 21 253 9.7 16.1 0.00 0.00 0.00 26 1011.2
20260505074534 21 187 4.8 14.5 0.00 0.00 0.00 25 1011.3
20260505073028 21 244 6.4 12.9 0.00 0.00 0.00 25 1011.1
20260505071527 21 250 4.8 11.3 0.00 0.00 0.00 27 1011.0
20260505070024 21 205 3.2 8.0 0.00 0.00 0.00 28 1011.0
20260505064532 21 183 3.2 8.0 0.00 0.00 0.00 29 1010.9
20260505063023 22 223 4.8 8.0 0.00 0.00 0.00 29 1011.1
20260505061523 22 209 4.8 8.0 0.00 0.00 0.00 28 1011.0
20260505060022 22 234 1.6 11.3 0.00 0.00 0.00 29 1010.8
20260505054540 22 245 3.2 8.0 0.00 0.00 0.00 29 1010.8
20260505053023 22 211 3.2 8.0 0.00 0.00 0.00 30 1011.0
20260505051520 22 194 3.2 8.0 0.00 0.00 0.00 30 1011.0
20260505041518 22 254 3.2 11.3 0.00 0.00 0.00 25 1011.0
20260505040018 22 267 3.2 8.0 0.00 0.00 0.00 25 1011.2
20260505034525 22 233 4.8 8.0 0.00 0.00 0.00 24 1011.0
20260505033016 22 213 3.2 8.0 0.00 0.00 0.00 24 1010.6
20260505031515 23 221 3.2 6.4 0.00 0.00 0.00 23 1010.5
20260505030036 23 226 1.6 4.8 0.00 0.00 0.00 23 1010.4
20260505024517 23 249 1.6 6.4 0.00 0.00 0.00 23 1010.2
20260505023014 23 264 3.2 12.9 0.00 0.00 0.00 23 1010.3
20260505021516 23 211 3.2 8.0 0.00 0.00 0.00 23 1010.2
20260505020013 23 256 3.2 11.3 0.00 0.00 0.00 22 1010.1
20260505014518 23 248 4.8 11.3 0.00 0.00 0.00 22 1010.3
20260505013018 23 209 6.4 12.9 0.00 0.00 0.00 21 1009.9
20260505011510 23 284 4.8 12.9 0.00 0.00 0.00 24 1010.1
20260505010010 23 231 6.4 16.1 0.00 0.00 0.00 25 1010.2